Weather History for Louisville Bowman, KY

Change the Weather History Date:

Friday, February 8, 2013

  Actual Average Record
Temperature  
Mean Temperature 44 °F 36 °F  
Max Temperature 54 °F 45 °F 69 °F (2001)
Min Temperature 34 °F 28 °F 3 °F (1979)
Degree Days  
Heating Degree Days 21 29  
Month to date heating degree days 248 234  
Since 1 July heating degree days 2699 2843  
Cooling Degree Days 0 0  
Month to date cooling degree days 0 0  
Year to date cooling degree days 0 0  
Moisture  
Dew Point 35 °F    
Average Humidity 74    
Maximum Humidity 93    
Minimum Humidity 54    
Precipitation  
Precipitation 0.13 in 0.11 in 1.84 in (1950)
Month to date precipitation 0.31 0.94  
Year to date precipitation 5.18 4.32  
Sea Level Pressure  
Sea Level Pressure 30.09 in    
Wind  
Wind Speed 10 mph (NW)    
Max Wind Speed 21 mph    
Max Gust Speed 28 mph    
Visibility 9 miles    
Events Rain    
T = Trace of Precipitation, MM = Missing Value Source: NWS Daily Summary

Daily Weather History Graph

Daily Weather History Graph

Search for Another Location

Airport:

Trip Planner

Search our weather history database for the weather conditions in past years. The results will help you decide how hot, cold, wet, or windy it might be!

Date:

Astronomy

Feb. 08, 2013 Rise Set
Actual Time 7:40 AM EST 6:13 PM EST
Civil Twilight 7:13 AM EST 6:41 PM EST
Nautical Twilight 6:41 AM EST 7:12 PM EST
Astronomical Twilight 6:11 AM EST 7:43 PM EST
Moon 6:07 AM EST (2/8) 4:46 PM EST (2/8)
Length of Visible Light 11h 27m
Length of Day
10h 33m
Waning Crescent, 3% of the Moon is Illuminated
Feb 8
Waning Crescent
Feb 10
New
Feb 17
First Quarter
Feb 25
Full
Mar 4
Last Quarter

Hourly Weather History & Observations

Time (EST) Temp. Windchill Dew Point Humidity Pressure Visibility Wind Dir Wind Speed Gust Speed Precip Events Conditions
12:53 AM 53.1 °F - 44.1 °F 71% 29.86 in 10.0 mi SSW 5.8 mph - 0.00 in Rain Light Rain
1:53 AM 51.1 °F - 46.9 °F 86% 29.86 in 5.0 mi SSW 5.8 mph - 0.02 in Rain Light Rain
2:46 AM 50.0 °F - 48.2 °F 94% 29.86 in 4.0 mi WSW 5.8 mph - 0.04 in Rain Light Rain
2:53 AM 50.0 °F - 48.0 °F 93% 29.86 in 4.0 mi SW 5.8 mph - 0.05 in Rain Light Rain
3:02 AM 50.0 °F - 48.2 °F 94% 29.86 in 3.0 mi WSW 5.8 mph - 0.00 in Rain Light Rain
3:13 AM 50.0 °F - 48.2 °F 94% 29.86 in 4.0 mi WSW 9.2 mph - 0.00 in   Overcast
3:34 AM 48.2 °F - 44.6 °F 87% 29.88 in 10.0 mi NW 17.3 mph 24.2 mph 0.01 in Rain Light Rain
3:43 AM 46.4 °F 39.2 °F 42.8 °F 87% 29.88 in 8.0 mi NW 18.4 mph - 0.01 in Rain Light Rain
3:53 AM 46.0 °F 39.9 °F 43.0 °F 89% 29.89 in 5.0 mi WNW 13.8 mph 25.3 mph 0.01 in Rain Light Rain
4:09 AM 46.4 °F 40.1 °F 42.8 °F 87% 29.90 in 6.0 mi NW 15.0 mph - 0.02 in Rain Light Rain
4:53 AM 43.0 °F 34.5 °F 39.9 °F 89% 29.93 in 10.0 mi NW 19.6 mph 26.5 mph 0.04 in Rain Light Rain
5:10 AM 42.8 °F 35.8 °F 39.2 °F 87% 29.94 in 10.0 mi NW 13.8 mph 24.2 mph 0.00 in   Overcast
5:53 AM 41.0 °F 34.3 °F 37.0 °F 86% 29.96 in 10.0 mi WNW 11.5 mph - 0.00 in   Overcast
6:17 AM 39.2 °F 31.2 °F 35.6 °F 87% 29.98 in 10.0 mi WNW 13.8 mph - N/A   Overcast
6:53 AM 39.2 °F 30.8 °F 35.6 °F 87% 30.00 in 10.0 mi NW 15.0 mph - N/A   Overcast
7:53 AM 39.0 °F 31.4 °F 34.0 °F 82% 30.04 in 10.0 mi NW 12.7 mph - 0.01 in   Overcast
8:53 AM 37.9 °F 28.5 °F 32.0 °F 79% 30.09 in 10.0 mi NW 17.3 mph 20.7 mph N/A   Overcast
9:53 AM 37.9 °F 30.5 °F 30.9 °F 76% 30.12 in 10.0 mi NNW 11.5 mph 18.4 mph N/A   Overcast
10:53 AM 37.0 °F 31.0 °F 30.9 °F 79% 30.16 in 10.0 mi NNW 8.1 mph - N/A   Overcast
11:53 AM 37.9 °F 29.6 °F 30.0 °F 73% 30.18 in 10.0 mi NW 13.8 mph - N/A   Overcast
12:53 PM 37.9 °F 30.9 °F 30.0 °F 73% 30.19 in 10.0 mi NW 10.4 mph - N/A   Overcast
1:53 PM 37.9 °F 30.9 °F 28.0 °F 68% 30.20 in 10.0 mi NNW 10.4 mph - N/A   Overcast
2:53 PM 37.0 °F 30.4 °F 28.0 °F 70% 30.21 in 10.0 mi NNW 9.2 mph - N/A   Overcast
3:53 PM 37.0 °F 31.0 °F 28.0 °F 70% 30.24 in 10.0 mi NNW 8.1 mph - N/A   Overcast
4:53 PM 37.0 °F 30.4 °F 27.0 °F 67% 30.26 in 10.0 mi NNW 9.2 mph - N/A   Overcast
5:53 PM 36.0 °F 30.3 °F 27.0 °F 70% 30.29 in 10.0 mi NW 6.9 mph - N/A   Overcast
6:53 PM 36.0 °F 30.3 °F 26.1 °F 67% 30.32 in 10.0 mi NNW 6.9 mph - N/A   Overcast
7:53 PM 36.0 °F 29.6 °F 26.1 °F 67% 30.34 in 10.0 mi NW 8.1 mph - N/A   Overcast
8:26 PM 35.6 °F 30.7 °F 26.6 °F 70% 30.34 in 10.0 mi WNW 5.8 mph - N/A   Overcast
8:53 PM 36.0 °F 30.3 °F 26.1 °F 67% 30.35 in 10.0 mi NW 6.9 mph - N/A   Overcast
9:53 PM 35.1 °F 32.2 °F 26.1 °F 70% 30.35 in 10.0 mi NNW 3.5 mph - N/A   Overcast
10:53 PM 35.1 °F 32.2 °F 26.1 °F 70% 30.36 in 10.0 mi NNW 3.5 mph - N/A   Overcast
11:53 PM 34.0 °F - 26.1 °F 73% 30.37 in 10.0 mi Calm Calm - N/A   Overcast